Weather History for Dayton, OH

Change the Weather History Date:

Wednesday, October 16, 2013

  Actual Average Record
Temperature  
Mean Temperature 58 °F 54 °F  
Max Temperature 68 °F 64 °F 89 °F (1897)
Min Temperature 47 °F 44 °F 28 °F (1991)
Degree Days  
Heating Degree Days 7 11  
Month to date heating degree days 56 149  
Since 1 July heating degree days 123 239  
Cooling Degree Days 0 0  
Month to date cooling degree days 35 10  
Year to date cooling degree days 1062 891  
Growing Degree Days 8 (Base 50)    
Moisture  
Dew Point 56 °F    
Average Humidity 76    
Maximum Humidity 100    
Minimum Humidity 52    
Precipitation  
Precipitation 0.25 in 0.09 in 1.13 in (1928)
Month to date precipitation 3.59 1.55  
Year to date precipitation 28.20 33.16  
Snow  
Snow 0.00 in 0.00 in 0.00 in ()
Month to date snowfall 0.0 0.1  
Since 1 July snowfall 0.0 0.1  
Since 1 September snowfall 0.0 0.1  
Snow Depth 0.00 in    
Sea Level Pressure  
Sea Level Pressure 29.92 in    
Wind  
Wind Speed 9 mph (SW)    
Max Wind Speed 18 mph    
Max Gust Speed 22 mph    
Visibility 7 miles    
Events Rain    
T = Trace of Precipitation, MM = Missing Value Source: NWS Daily Summary

Daily Weather History Graph

Daily Weather History Graph

Search for Another Location

Airport:

Trip Planner

Search our weather history database for the weather conditions in past years. The results will help you decide how hot, cold, wet, or windy it might be!

Date:

Astronomy

Oct. 16, 2013 Rise Set
Actual Time 7:48 AM EDT 6:55 PM EDT
Civil Twilight 7:21 AM EDT 7:22 PM EDT
Nautical Twilight 6:49 AM EDT 7:54 PM EDT
Astronomical Twilight 6:18 AM EDT 8:25 PM EDT
Moon 5:34 PM EDT (10/16) 5:15 AM EDT (10/16)
Length of Visible Light 12h 01m
Length of Day
11h 07m
Waxing Gibbous, 94% of the Moon is Illuminated
Oct 16
Waxing Gibbous
Oct 18
Full
Oct 26
Last Quarter
Nov 3
New
Nov 10
First Quarter

Hourly Weather History & Observations

Time (EDT) Temp. Dew Point Humidity Pressure Visibility Wind Dir Wind Speed Gust Speed Precip Events Conditions
12:46 AM 64.4 °F 60.8 °F 88% 29.96 in 5.0 mi SW 23.0 mph 27.6 mph 0.00 in Rain Light Rain
12:56 AM 63.0 °F 61.0 °F 93% 29.94 in 5.0 mi SSW 17.3 mph 25.3 mph 0.00 in Rain Light Rain
1:17 AM 62.6 °F 60.8 °F 94% 29.95 in 10.0 mi SSW 12.7 mph - 0.01 in   Overcast
1:56 AM 63.0 °F 62.1 °F 97% 29.94 in 10.0 mi South 11.5 mph - 0.01 in   Overcast
2:56 AM 64.0 °F 62.1 °F 93% 29.92 in 10.0 mi SSW 9.2 mph - 0.00 in   Overcast
3:56 AM 64.0 °F 62.1 °F 93% 29.90 in 10.0 mi South 10.4 mph - 0.00 in   Overcast
4:34 AM 64.4 °F 62.6 °F 94% 29.91 in 10.0 mi South 9.2 mph - 0.00 in Rain Light Rain
4:56 AM 64.0 °F 62.1 °F 93% 29.89 in 4.0 mi South 9.2 mph - 0.02 in Rain Light Rain
5:07 AM 64.4 °F 62.6 °F 94% 29.91 in 2.5 mi SSW 10.4 mph - 0.02 in Rain Light Rain
5:11 AM 62.6 °F 62.6 °F 100% 29.91 in 2.5 mi SSW 10.4 mph - 0.04 in Rain Rain
5:34 AM 62.6 °F 62.6 °F 100% 29.90 in 3.0 mi SSW 10.4 mph - 0.10 in Rain Light Rain
5:44 AM 62.6 °F 62.6 °F 100% 29.91 in 4.0 mi SSW 10.4 mph - 0.11 in Rain Rain
5:56 AM 63.0 °F 62.1 °F 97% 29.89 in 3.0 mi SSW 9.2 mph - 0.15 in Rain Heavy Rain
6:11 AM 62.6 °F 62.6 °F 100% 29.91 in 2.5 mi SSW 9.2 mph - 0.05 in Rain Light Rain
6:36 AM 62.6 °F 62.6 °F 100% 29.91 in 6.0 mi SSW 10.4 mph - 0.06 in Rain Light Rain
6:56 AM 63.0 °F 62.1 °F 97% 29.90 in 2.0 mi SW 9.2 mph - 0.06 in Rain Light Rain
7:09 AM 62.6 °F 62.6 °F 100% 29.92 in 4.0 mi SW 9.2 mph - 0.00 in Rain Light Rain
7:56 AM 63.0 °F 62.1 °F 97% 29.91 in 4.0 mi SW 8.1 mph - 0.00 in   Overcast
8:16 AM 62.6 °F 62.6 °F 100% 29.92 in 5.0 mi SSW 6.9 mph - N/A   Overcast
8:56 AM 63.0 °F 62.1 °F 97% 29.91 in 1.0 mi SW 8.1 mph - N/A   Overcast
9:47 AM 62.6 °F 62.6 °F 100% 29.93 in 0.8 mi SSW 8.1 mph - 0.00 in Rain Light Rain
9:56 AM 63.0 °F 62.1 °F 97% 29.92 in 1.0 mi SSW 8.1 mph - 0.01 in Rain Light Rain
10:27 AM 59.0 °F 57.2 °F 94% 29.93 in 2.0 mi West 10.4 mph - 0.00 in Rain Light Rain
10:35 AM 59.0 °F 57.2 °F 94% 29.94 in 8.0 mi WNW 10.4 mph - 0.00 in   Overcast
10:56 AM 59.0 °F 55.9 °F 90% 29.93 in 10.0 mi West 10.4 mph - 0.00 in   Overcast
11:36 AM 59.0 °F 57.2 °F 94% 29.94 in 8.0 mi West 6.9 mph - N/A   Overcast
11:56 AM 59.0 °F 57.0 °F 93% 29.93 in 8.0 mi West 8.1 mph - 0.00 in Rain Light Rain
12:06 PM 59.0 °F 55.4 °F 88% 29.94 in 9.0 mi West 9.2 mph - 0.00 in Rain Light Rain
12:25 PM 60.8 °F 55.4 °F 82% 29.93 in 10.0 mi WSW 11.5 mph - 0.00 in   Overcast
12:56 PM 63.0 °F 57.0 °F 81% 29.93 in 10.0 mi WSW 9.2 mph - 0.00 in   Mostly Cloudy
1:56 PM 63.0 °F 53.1 °F 70% 29.91 in 10.0 mi WSW 12.7 mph - N/A   Mostly Cloudy
2:56 PM 66.0 °F 53.1 °F 63% 29.89 in 10.0 mi SW 11.5 mph - N/A   Mostly Cloudy
3:56 PM 66.0 °F 48.0 °F 52% 29.90 in 10.0 mi West 17.3 mph - N/A   Scattered Clouds
4:56 PM 64.9 °F 46.9 °F 52% 29.90 in 10.0 mi West 12.7 mph - N/A   Mostly Cloudy
5:56 PM 63.0 °F 45.0 °F 52% 29.91 in 10.0 mi West 11.5 mph - N/A   Mostly Cloudy
6:56 PM 59.0 °F 46.9 °F 64% 29.92 in 10.0 mi West 8.1 mph - N/A   Scattered Clouds
7:56 PM 53.1 °F 45.0 °F 74% 29.94 in 10.0 mi WSW 6.9 mph - N/A   Partly Cloudy
8:56 PM 53.1 °F 45.0 °F 74% 29.95 in 10.0 mi West 9.2 mph - N/A   Clear
9:56 PM 52.0 °F 45.0 °F 77% 29.97 in 10.0 mi NW 8.1 mph - N/A   Clear
10:56 PM 48.9 °F 44.1 °F 83% 29.99 in 10.0 mi NNW 9.2 mph - N/A   Clear
11:56 PM 48.0 °F 43.0 °F 83% 29.98 in 10.0 mi Calm Calm - N/A   Clear